[[{"header":{"parameterUnit":"m.s-1","parameterCategory":1,"la1":30.2992,"la2":30.254,"lo1":-89.0895,"lo2":-89.0443,"dy":0.0025,"dx":0.0025,"nx":19,"ny":19,"refTime":"2026-05-15T21:00:00:Z","depth":0,"parameterNumber":2,"parameterNumberName":"U-component_of_WINDS"},"data":[0,0,0,-1.3487,-1.3489,-1.36,-1.3601,-1.3737,-1.3739,0,0,0,0,0,0,0,0,0,0,0,-1.345,-1.3451,-1.3487,-1.349,-1.36,-1.3601,-1.3737,-1.3739,0,0,0,0,0,0,0,0,0,0,0,-1.345,-1.345,-1.3451,-1.349,-1.36,-1.3601,-1.3737,-1.3656,0,0,0,0,0,0,0,0,0,0,-1.3549,-1.351,-1.345,-1.3451,-1.3491,-1.36,-1.3601,-1.3652,-1.3661,-1.3685,0,-1.3703,0,-1.3723,-1.3747,-1.3748,0,0,0,-1.3494,-1.3502,-1.3536,-1.3451,-1.3492,-1.36,-1.3551,-1.3657,-1.3667,-1.3697,-1.3705,-1.3711,-1.3725,-1.3748,-1.3749,-1.387,-1.387,0,0,-1.3488,-1.3468,-1.3529,-1.3542,-1.3523,-1.3548,-1.3555,-1.3663,-1.3672,-1.3706,-1.3714,-1.3727,-1.3749,-1.375,-1.387,-1.387,0,0,0,-1.3467,-1.3463,-1.3495,-1.3536,-1.3557,-1.3551,-1.3559,-1.3667,-1.3679,-1.3715,-1.3729,-1.375,-1.3751,-1.3869,-1.387,-1.3868,0,0,0,-1.3464,-1.3452,-1.3492,-1.3481,-1.3554,-1.3613,-1.3561,-1.3671,-1.3684,-1.3728,-1.375,-1.3753,-1.3869,-1.387,-1.3868,-1.3872,0,0,0,-1.3444,-1.3449,-1.3463,-1.3479,-1.3526,-1.3612,-1.363,-1.3675,-1.3692,-1.3748,-1.3753,-1.3869,-1.3869,-1.3867,-1.387,-1.3897,0,0,0,-1.3418,-1.3462,-1.3463,-1.3517,-1.3525,-1.3609,-1.3629,-1.3694,-1.3741,-1.375,-1.3869,-1.387,-1.3867,-1.387,-1.3896,-1.3916,-1.3923,0,0,-1.3462,-1.3466,-1.35,-1.3504,-1.3583,-1.3594,-1.3674,-1.3737,-1.3761,-1.3833,-1.3836,-1.3868,-1.387,-1.3897,-1.3965,-1.397,0,0,0,-1.3507,-1.3531,-1.3556,-1.3599,-1.3647,-1.3689,-1.3742,-1.3765,-1.3826,-1.3793,-1.3886,-1.3888,-1.3904,-1.3915,-1.3919,-1.3935,-1.3874,-1.3874,-1.3873,-1.3542,-1.3569,-1.3626,-1.3667,-1.3709,-1.3762,-1.3799,-1.384,-1.3857,-1.3878,-1.3899,-1.3937,-1.3948,-1.3952,-1.3968,-1.3912,-1.3912,-1.3912,-1.3912,-1.3609,-1.3647,-1.3667,-1.3729,-1.3758,-1.3812,-1.3865,-1.3875,-1.393,-1.3923,-1.3939,-1.3929,-1.3956,-1.3972,-1.3912,-1.3912,-1.3912,-1.3912,-1.3912,-1.3635,-1.3658,-1.3684,-1.3749,-1.3796,-1.3837,-1.3888,-1.3914,-1.3938,-1.3954,-1.3979,-1.398,-1.3983,-1.3964,-1.3964,-1.3964,-1.3964,-1.3965,-1.3965,-1.3651,-1.3681,-1.372,-1.3774,-1.3805,-1.3849,-1.3903,-1.3935,-1.3977,-1.3991,-1.3992,-1.4006,-1.3953,-1.3939,-1.3967,-1.3966,-1.3966,-1.3966,-1.3966,-1.371,-1.37,-1.3761,-1.3792,-1.3857,-1.3902,-1.3934,-1.3996,-1.4026,-1.4051,-1.4062,-1.4019,-1.4025,-1.4022,-1.4011,-1.4055,-1.4055,-1.4055,-1.4055,-1.3732,-1.3737,-1.3804,-1.3852,-1.3901,-1.3935,-1.4004,-1.4047,-1.409,-1.411,-1.4108,-1.4095,-1.409,-1.41,-1.4095,-1.4085,-1.4147,-1.4147,-1.4148,-1.377,-1.3781,-1.3834,-1.3873,-1.3926,-1.3972,-1.4038,-1.4093,-1.414,-1.4152,-1.4127,-1.4123,-1.4103,-1.4095,-1.4106,-1.4098,-1.4081,0,0]},{"header":{"parameterUnit":"m.s-1","parameterCategory":1,"la1":30.2992,"la2":30.254,"lo1":-89.0895,"lo2":-89.0443,"dy":0.0025,"dx":0.0025,"nx":19,"ny":19,"refTime":"2026-05-15T21:00:00:Z","depth":0,"parameterNumber":3,"parameterNumberName":"V-component_of_WINDS"},"data":[0,0,0,4.0721,4.0722,4.0757,4.0757,4.0823,4.0824,0,0,0,0,0,0,0,0,0,0,0,4.0725,4.0726,4.0721,4.0722,4.0757,4.0757,4.0823,4.0824,0,0,0,0,0,0,0,0,0,0,0,4.0724,4.0725,4.0726,4.0722,4.0757,4.0757,4.0823,4.0788,0,0,0,0,0,0,0,0,0,0,4.075,4.0768,4.0725,4.0726,4.0722,4.0757,4.0757,4.0786,4.079,4.0816,0,4.0844,0,4.0835,4.083,4.083,0,0,0,4.0711,4.0765,4.0762,4.0727,4.0723,4.0757,4.0738,4.0788,4.0793,4.0822,4.0845,4.0847,4.0836,4.083,4.0831,4.1016,4.1017,0,0,4.0709,4.0739,4.0758,4.0765,4.0763,4.0737,4.0739,4.0791,4.0818,4.0845,4.0848,4.0837,4.0831,4.0831,4.1015,4.1016,0,0,0,4.0711,4.0738,4.0732,4.0763,4.0768,4.0738,4.0741,4.0815,4.0811,4.0849,4.0838,4.0831,4.0832,4.1013,4.1015,4.111,0,0,0,4.0709,4.0739,4.0732,4.0751,4.0768,4.0793,4.0765,4.0808,4.0813,4.0838,4.0831,4.0833,4.1012,4.1014,4.1104,4.115,0,0,0,4.0717,4.0739,4.0749,4.0752,4.0768,4.0791,4.079,4.0808,4.0807,4.083,4.0833,4.1011,4.1014,4.1099,4.1141,4.1205,0,0,0,4.0735,4.0835,4.0752,4.0859,4.0768,4.085,4.0789,4.0849,4.088,4.0832,4.1012,4.1015,4.1097,4.1135,4.1199,4.1263,4.1292,0,0,4.0878,4.0854,4.0914,4.084,4.0944,4.0842,4.096,4.0961,4.0937,4.099,4.0995,4.1106,4.114,4.1203,4.1451,4.1475,0,0,0,4.0969,4.1013,4.1034,4.1065,4.1068,4.1073,4.1053,4.1052,4.1096,4.0971,4.1146,4.1166,4.1202,4.123,4.1251,4.1278,4.103,4.103,4.103,4.1214,4.1176,4.1273,4.1238,4.1269,4.1245,4.1265,4.126,4.1215,4.1257,4.1272,4.1427,4.1462,4.1477,4.1507,4.1304,4.1305,4.1305,4.1305,4.1418,4.1473,4.1407,4.1477,4.1435,4.1493,4.1474,4.1439,4.1485,4.1414,4.1443,4.1367,4.1505,4.1528,4.1312,4.1311,4.131,4.1309,4.1309,4.1573,4.1592,4.1589,4.1626,4.1659,4.1621,4.1667,4.1628,4.1592,4.1622,4.1632,4.163,4.1621,4.1629,4.163,4.1631,4.1631,4.1631,4.1632,4.1734,4.1727,4.1772,4.178,4.1792,4.1804,4.1779,4.179,4.1791,4.1759,4.1759,4.1707,4.1526,4.148,4.164,4.1638,4.1637,4.1637,4.1636,4.1952,4.1896,4.1964,4.1976,4.1981,4.2014,4.1963,4.1987,4.1991,4.2014,4.1956,4.1829,4.1801,4.1785,4.1746,4.1965,4.1965,4.1965,4.1965,4.2081,4.2063,4.2122,4.2143,4.2159,4.2119,4.2195,4.2175,4.2146,4.2145,4.2108,4.2054,4.2039,4.202,4.1999,4.1962,4.2231,4.2231,4.2232,4.2212,4.2193,4.2266,4.2235,4.2235,4.2235,4.2304,4.2329,4.2285,4.2241,4.2143,4.2131,4.2044,4.2018,4.1972,4.194,4.1871,0,0]}]]